Regional Weather Roundup
Issued by NWS

Home | Current Version | Previous Version | Text Only | Print | Product List | Glossary On
Versions: 1 2 3 4 5 6 7 8 9 10 11 12 13 14 15 16 17 18 19 20 21 22 23 24 25 26 27 28 29 30 31 32 33 34 35 36 37 38 39 40 41 42 43 44 45 46 47 48 49 50
000
ASUS44 KFWD 210210
RWRTX
NORTH TEXAS HOURLY WEATHER ROUNDUP
NATIONAL WEATHER SERVICE FORT WORTH TX
800 PM CST SAT DEC 20 2014

NOTE: "FAIR" INDICATES FEW OR NO CLOUDS BELOW 12,000 FEET WITH NO
SIGNIFICANT WEATHER AND/OR OBSTRUCTIONS TO VISIBILITY.

TXZ118-119-210300-
DALLAS/FORT WORTH METROPLEX

CITY           SKY/WX    TMP DP  RH WIND       PRES   REMARKS
DFW AIRPORT    CLOUDY    47  43  86 E3        30.18R
DALLAS LOVE    CLOUDY    48  42  80 E5        30.19R
FTW MEACHAM    CLOUDY    48  43  82 E8        30.17S HAZE
DAL-EXECUTIVE  CLOUDY    49  43  80 E6        30.18R
FTW-ALLIANCE   CLOUDY    46  43  89 E6        30.17S
FTW-SPINKS     CLOUDY    47  44  88 E6        30.19S FOG
ARLINGTON      CLOUDY    49  42  77 E3        30.19R
GRAND PRAIRIE  CLOUDY    47  45  91 MISG      30.20R
ADDISON        CLOUDY    46  43  87 CALM      30.20R
MESQUITE       CLOUDY    46  45  93 CALM      30.20S
LANCASTER      CLOUDY    47  43  86 E3        30.20S
$$

TXZ091>094-102>105-117-120-121-131>134-210300-
NORTH CENTRAL TEXAS

CITY           SKY/WX    TMP DP  RH WIND       PRES   REMARKS
SHRMAN/DENISON CLOUDY    46  44  95 CALM      30.20S
GAINESVILLE    CLOUDY    44  41  89 SE7       30.20S
BOWIE          CLOUDY    44  42  92 CALM      30.17S
BRIDGEPORT     CLOUDY    46  41  84 SE5       30.18S
DECATUR        CLOUDY    44  43  95 E6        30.16F
DENTON         CLOUDY    46  42  86 E7        30.18S
MCKINNEY       CLOUDY    46  43  89 CALM      30.19S
GREENVILLE     CLOUDY    46  43  87 CALM      30.20S
ROCKWALL       CLOUDY    47  45  94 E5        30.18S
TERRELL        CLOUDY    49  45  86 CALM      30.20R
WAXAHACHIE     CLOUDY    46  46  98 E3        30.19S
CLEBURNE       CLOUDY    46  46 100 E5        30.19R
GRANBURY       CLOUDY    49  44  81 E5        30.19S
$$

TXZ083>090-098>101-113>116-127>130-139>142-154-155-210300-
WESTERN NORTH TEXAS

CITY           SKY/WX    TMP DP  RH WIND       PRES   REMARKS
WICHITA FALLS  CLOUDY    44  40  85 SE8       30.14R WCI  39
WF-KICKAPOO    CLOUDY    45  40  85 SE7       30.16R
VERNON         PTCLDY    43  38  83 SE7       30.12F WCI  39
ABILENE        CLOUDY    49  41  74 SE10      30.10F
BRECKENRIDGE   CLOUDY    49  42  78 SE7       30.15R
GRAHAM         CLOUDY    46  42  89 SE5       30.14S
MINERAL WELLS  CLOUDY    47  40  76 SE5       30.16R
STEPHENVILLE   CLOUDY    47  40  75 S6        30.19R
COMANCHE       CLOUDY    46  42  85 SE7       30.16S
BROWNWOOD      CLOUDY    45  41  87 E6        30.16R
COLEMAN        CLEAR     47  42  85 SE5       30.14R
BRADY          CLEAR     43  39  87 E7        30.12S WCI  39
$$

TXZ143>147-156>162-174-175-210300-
CENTRAL TEXAS

CITY           SKY/WX    TMP DP  RH WIND       PRES   REMARKS
WACO           CLOUDY    49  45  86 NE3       30.19R
WACO-TSTC      CLOUDY    48  46  93 CALM      30.19S
WACO-MCGREGOR  CLOUDY    48  43  81 E5        30.20S
HILLSBORO      CLOUDY    48  44  87 E7        30.18S
CORSICANA      CLOUDY    50  46  86 NE5       30.20S
MEXIA          CLOUDY    49  46  88 CALM      30.19R
HEARNE         CLOUDY    51  46  84 E6        30.21R
CAMERON        CLOUDY    51  48  90 CALM      30.19S
TEMPLE         CLOUDY    48  43  81 CALM      30.18R
KILLEEN        CLOUDY    48  45  87 E7        30.17S
KILLEEN-SKYLRK CLOUDY    48  41  76 E8        30.17R
FORT HOOD      CLOUDY    49  46  88 E6        30.17S
GATESVILLE     CLOUDY    48  45  87 CALM      30.20S
HAMILTON       CLOUDY    49  43  80 S7        30.17S
$$

TXZ095>097-106>112-122>126-135>138-148>153-164>167-210300-
EAST TEXAS

CITY           SKY/WX    TMP DP  RH WIND       PRES   REMARKS
PARIS          CLOUDY    46  43  87 E8        30.21S
SULPHUR SPRNGS CLOUDY    48  44  88 CALM      30.22S
MOUNT PLEASANT CLOUDY    48  45  90 E3        30.22F
MINEOLA        CLOUDY    48  46  93 CALM      30.21S FOG
TYLER          PTCLDY    46  42  86 E5        30.19S
LONGVIEW       CLEAR     43  40  89 CALM      30.20R
MARSHALL         N/A     41  40  93 CALM      30.24R
ATHENS         CLOUDY    45  41  87 CALM      30.18F
PALESTINE      CLOUDY    48  44  86 CALM      30.22R
JACKSONVILLE   MOCLDY    47  44  90 NE3       30.21S
HENDERSON      CLEAR     42  42 100 E3        30.21F
NACOGDOCHES    CLEAR     45  39  81 E3        30.21R
LUFKIN         PTCLDY    50  43  77 NE6       30.19R
$$

SUPPLEMENTAL OBSERVATIONS (CENTRAL)

CITY           SKY/WX    TMP DP  RH WIND       PRES   REMARKS
CADDO GRASSLND   N/A     45  41  87 E1          N/A
PAT MAYSE LAKE   N/A     46  43  87 NE2         N/A
GREENVILLE       N/A     46  43  87 E3          N/A
CEDAR HILL       N/A     46  43  87 NE1         N/A
PALESTINE        N/A     48  45  87 CALM        N/A
MCGREGOR         N/A     48  45  87 E6          N/A
TEMPLE           N/A     48  43  81 NE7         N/A
$$

SUPPLEMENTAL OBSERVATIONS (WEST)

CITY           SKY/WX    TMP DP  RH WIND       PRES   REMARKS
MILLERS CREEK    N/A     45  39  81 SE8         N/A
POSSUM KINGDOM   N/A     45  39  81 SE6         N/A
LBJ GRASSLAND    N/A     45  41  87 E3          N/A
GRANBURY         N/A     48  43  81 E6          N/A
HAMBY            N/A     48  39  71 SE8         N/A
IVIE RESERVOIR   N/A     48  41  76 E12         N/A
COLORADO BEND    N/A     46  39  76 SE3         N/A
$$

SUPPLEMENTAL OBSERVATIONS (EAST)

CITY           SKY/WX    TMP DP  RH WIND       PRES   REMARKS
CLARKSVILLE      N/A     46  45  93 E3          N/A
TEXARKANA        N/A     41  36  81 CALM        N/A
LINDEN           N/A     46  41  81 E1          N/A
GILMER           N/A     46  41  81 CALM        N/A
HENDERSON        N/A     45  41  87 E8          N/A
LUFKIN           N/A     48  43  81 MISG        N/A
N SABINE NF      N/A     45  41  87 MISG        N/A
S SABINE NF      N/A     45  39  81 W1          N/A
$$

SUPPLEMENTAL OBSERVATIONS ARE A COLLECTION OF AUTOMATED INSTRUMENTS
THAT ARE MAINTAINED BY A VARIETY OF FEDERAL AND STATE AGENCIES.
CERTAIN ELEMENTS...SUCH AS HUMIDITY VALUES AND SUSTAINED WIND
SPEEDS...MAY BE APPROXIMATED.




USA.gov is the U.S. government's official web portal to all federal, state and local government web resources and services.